WetterOnline ( https://www.wetteronline.de )

Wetter aktuell Paderborn

Aktuelles Wetter: Bad Lippspringe (158m)

6-stündlich | Neueste Meldungen
Ortszeit Temperatur Wetter
Di, 28.06. 20:00 23.0° C wolkenlos
Di, 28.06. 14:00 22.1° C leicht bewölkt
Di, 28.06. 8:00 15.3° C wolkenlos
Di, 28.06. 2:00 13.7° C wolkig
Mo, 27.06. 20:00 19.2° C bewölkt
Mo, 27.06. 14:00 19.5° C bedeckt
Mo, 27.06. 8:00 16.4° C bedeckt
Mo, 27.06. 2:00 16.1° C leichter Regen
Ortszeit Temperatur Wetter
Di, 28.06. 23:00 15.1° C wolkig
Di, 28.06. 22:50 15.1° C wolkig
Di, 28.06. 22:40 15.3° C bedeckt
Di, 28.06. 22:30 15.8° C wolkig
Di, 28.06. 22:20 15.8° C wolkig
Di, 28.06. 22:10 16.1° C bedeckt
Di, 28.06. 22:00 17.0° C wolkig
Di, 28.06. 21:30 19.1° C wolkig
Di, 28.06. 21:00 21.3° C leicht bewölkt
Di, 28.06. 20:30 22.4° C fast wolkenlos
Di, 28.06. 20:00 23.0° C wolkenlos
Ortszeit Relative Feuchte Sichtweite
Di, 28.06. 20:00 43% >70 km
Di, 28.06. 14:00 42% 60 km
Di, 28.06. 8:00 78% 20 km
Di, 28.06. 2:00 93% 7 km
Mo, 27.06. 20:00 79% 18 km
Mo, 27.06. 14:00 86% 12 km
Mo, 27.06. 8:00 97% 7 km
Mo, 27.06. 2:00 96% 11 km
Ortszeit Relative Feuchte Sichtweite
Di, 28.06. 23:00 82% 50 km
Di, 28.06. 22:50 82% -
Di, 28.06. 22:40 81% -
Di, 28.06. 22:30 76% 60 km
Di, 28.06. 22:20 76% -
Di, 28.06. 22:10 81% -
Di, 28.06. 22:00 79% 65 km
Di, 28.06. 21:30 68% >70 km
Di, 28.06. 21:00 58% >70 km
Di, 28.06. 20:30 45% >70 km
Di, 28.06. 20:00 43% >70 km
Ortszeit Niederschlagsmenge Niederschlagsart
Di, 28.06. 20:00 0.0 l/m2 in 12 Std. -
Di, 28.06. 14:00 0.0 l/m2 in 6 Std. -
Di, 28.06. 8:00 0.1 l/m2 in 12 Std. -
Di, 28.06. 2:00 0.1 l/m2 in 6 Std. Regen
Mo, 27.06. 20:00 0.2 l/m2 in 12 Std. Regen
Mo, 27.06. 14:00 0.1 l/m2 in 6 Std. Regen
Mo, 27.06. 8:00 15 l/m2 in 12 Std. Regen
Mo, 27.06. 2:00 3 l/m2 in 6 Std. Regen
Ortszeit Niederschlagsmenge Niederschlagsart
Di, 28.06. 23:00 0.0 l/m2 in 1 Std. -
Di, 28.06. 22:50 keine Meldung -
Di, 28.06. 22:40 keine Meldung -
Di, 28.06. 22:30 0.0 l/m2 in 1 Std. -
Di, 28.06. 22:20 keine Meldung -
Di, 28.06. 22:10 keine Meldung -
Di, 28.06. 22:00 0.0 l/m2 in 1 Std. -
Di, 28.06. 21:30 0.0 l/m2 in 1 Std. -
Di, 28.06. 21:00 0.0 l/m2 in 1 Std. -
Di, 28.06. 20:30 0.0 l/m2 in 1 Std. -
Di, 28.06. 20:00 0.0 l/m2 in 1 Std. -
Ortszeit Stärke Spitze Richtung
km/h Bft. km/h Grad Sektor
Di, 28.06. 20:00 7 2 22 80° O
Di, 28.06. 14:00 7 2 24 240° SW
Di, 28.06. 8:00 4 1 18 200° S
Di, 28.06. 2:00 9 2 37 260° W
Mo, 27.06. 20:00 9 2 26 310° NW
Mo, 27.06. 14:00 13 3 22 310° NW
Mo, 27.06. 8:00 7 2 25 320° NW
Mo, 27.06. 2:00 11 2 22 80° O
Ortszeit Stärke Spitze Richtung
km/h Bft. km/h Grad Sektor
Di, 28.06. 23:00 9 2 11 80° O
Di, 28.06. 22:50 9 2 - 80° O
Di, 28.06. 22:40 6 1 - 80° O
Di, 28.06. 22:30 2 1 7 60° NO
Di, 28.06. 22:20 2 1 - 60° NO
Di, 28.06. 22:10 4 1 - 40° NO
Di, 28.06. 22:00 4 1 11 60° NO
Di, 28.06. 21:30 9 2 13 80° O
Di, 28.06. 21:00 7 2 14 60° NO
Di, 28.06. 20:30 9 2 13 70° O
Di, 28.06. 20:00 7 2 14 80° O
Ortszeit Untergrenze Bedeckung Gattung
total tief tief mittel hoch
Di, 28.06. 20:00 - 0/8 0/8 - - -
Di, 28.06. 14:00 1500 m 3/8 3/8 - - -
Di, 28.06. 8:00 - 0/8 0/8 - - -
Di, 28.06. 2:00 270 m 5/8 5/8 - - -
Mo, 27.06. 20:00 540 m 8/8 4/8 - - -
Mo, 27.06. 14:00 450 m 8/8 8/8 - - -
Mo, 27.06. 8:00 90 m 8/8 8/8 - - -
Mo, 27.06. 2:00 300 m 8/8 8/8 - - -
Ortszeit Bedeckungsgrad in Achtel und Wolkenuntergrenze
Di, 28.06. 23:00 8(8700m) 8(9000m)
Di, 28.06. 22:50 8(8700m) 8(9000m)
Di, 28.06. 22:40 8
Di, 28.06. 22:30 8(8700m)
Di, 28.06. 22:20 8(8700m)
Di, 28.06. 22:10 8
Di, 28.06. 22:00 8(9000m)
Di, 28.06. 21:30 8(9000m)
Di, 28.06. 21:00 8(9000m)
Di, 28.06. 20:30 1(9000m)
Di, 28.06. 20:00 keine Wolken
Ortszeit Luftdruck NN (hPa) Tendenz (hPa in 3 Std.)
Di, 28.06. 20:00 1019 - 1,3
Di, 28.06. 14:00 1021 - 0,9
Di, 28.06. 8:00 1023 + 0,5
Di, 28.06. 2:00 1021 + 1,1
Mo, 27.06. 20:00 1017 + 0,9
Mo, 27.06. 14:00 1015 + 0,7
Mo, 27.06. 8:00 1014 - 0,7
Mo, 27.06. 2:00 1014 - 1,0
Ortszeit Luftdruck NN (hPa) Tendenz (hPa in 3 Std.)
Di, 28.06. 23:00 1019 - 0,1
Di, 28.06. 22:50 1019 keine Meldung
Di, 28.06. 22:40 1019 keine Meldung
Di, 28.06. 22:30 1019 - 0,2
Di, 28.06. 22:20 1019 keine Meldung
Di, 28.06. 22:10 1019 keine Meldung
Di, 28.06. 22:00 1019 - 0,7
Di, 28.06. 21:30 1018 - 0,9
Di, 28.06. 21:00 1018 - 0,9
Di, 28.06. 20:30 1018 - 0,8
Di, 28.06. 20:00 1019 - 1,3
Ortszeit Schneehöhe (cm)
Di, 28.06. 20:00 0
Di, 28.06. 14:00 0
Di, 28.06. 8:00 0
Di, 28.06. 2:00 0
Mo, 27.06. 20:00 0
Mo, 27.06. 14:00 0
Mo, 27.06. 8:00 0
Mo, 27.06. 2:00 0
Ortszeit Schneehöhe (cm)
Di, 28.06. 23:00 0
Di, 28.06. 22:50 0
Di, 28.06. 22:40 0
Di, 28.06. 22:30 0
Di, 28.06. 22:20 0
Di, 28.06. 22:10 0
Di, 28.06. 22:00 0
Di, 28.06. 21:30 0
Di, 28.06. 21:00 0
Di, 28.06. 20:30 0
Di, 28.06. 20:00 0
Link zu dieser Seite / Seite empfehlen

Das Wetter in ...